Location: Eboldshausen
(51.7766°N, 10.0050°E)
Time: 07:56:31
(UTC+00:00)

Aureole 3 Rocket - Pass Details

Date: 15 November 2025
Orbit: 398 x 1690 km, 82.5° (Epoch: 12 December)

Event Time Altitude Azimuth Distance (km) Brightness Sun altitude
Rises 16:25:53 0° 143° (SE) 2,332 5.8 -8.8°
Reaches altitude 10° 16:28:47 10° 111° (ESE) 1,451 4.5 -9.2°
Enters shadow 16:29:47 12° 92° (E) 1,332 4.2 -9.4°
